Flag for U.S.A. Weather past 2 weeks in Livonia, Michigan, U.S.A.

Now
77 °F

Passing clouds.


Feels Like: 79 °F
Forecast: 64 / 90 °F
Wind: No wind

Location: Detroit Metropolitan Wayne County Airport

Current Time: Jul 27, 2015 at 11:37:59 PM

Latest Report: Jul 27, 2015 at 10:53 PM


Visibility: 10 mi

Pressure: 30.03 "Hg

Humidity: 64%

Dew point: 64 °F

Location of LivoniaLocation

Historic Weather in Livonia — Graph

°F

Livonia temperature yesterday

Maximum temperature yesterday: 85 °F (at 2:53 PM)
Minimum temperature yesterday: 70 °F (at 4:53 AM)
Average temperature yesterday: 78 °F

Past Weeks' High & Low Weather Summary

 TemperatureHumidityPressure
High90 °F (Jul 19, 1:53 PM)94% (Jul 13, 6:53 AM)30.10 "Hg (Jul 13, 6:53 AM)
Low55 °F (Jul 16, 4:53 AM)32% (Jul 15, 5:53 PM)29.49 "Hg (Jul 14, 12:53 PM)
Average75 °F65%29.88 "Hg
* Reported Jul 12 9:53 PM — Jul 27 9:53 PM, Livonia, Weather by CustomWeather, © 2015

Note: Actual official high and low records may vary slightly from our data, if they occured in-between our weather recording intervals... More about our weather records

Advertising

Livonia weather history for previous 24 hours

 ConditionsComfort  
Time TempWeatherWind HumidityBarometerVisibility
9:53 PM
Mon, Jul 27
78 °FScattered clouds.5 mph62%30.01 "Hg10 mi
8:53 PM81 °FScattered clouds.3 mph56%29.99 "Hg10 mi
7:53 PM85 °FScattered clouds.6 mph48%29.98 "Hg10 mi
6:53 PM87 °FPassing clouds.6 mph42%29.98 "Hg10 mi
5:53 PM88 °FScattered clouds.6 mph39%30.00 "Hg10 mi
4:53 PM88 °FScattered clouds.5 mph36%30.00 "Hg10 mi
3:53 PM88 °FBroken clouds.5 mph39%30.01 "Hg10 mi
2:53 PM87 °FBroken clouds.No wind42%30.02 "Hg10 mi
1:53 PM86 °FBroken clouds.3 mph42%30.03 "Hg10 mi
12:53 PM86 °FPartly sunny.7 mph43%30.04 "Hg10 mi
11:53 AM85 °FPartly sunny.7 mph45%30.05 "Hg10 mi
10:53 AM83 °FPartly sunny.3 mph44%30.04 "Hg10 mi
9:53 AM80 °FPartly sunny.6 mph49%30.03 "Hg10 mi
8:53 AM77 °FPassing clouds.3 mph64%30.03 "Hg10 mi
7:53 AM70 °FScattered clouds.6 mph76%30.02 "Hg10 mi
6:53 AM67 °FPassing clouds.3 mph81%30.01 "Hg10 mi
5:53 AM67 °FPassing clouds.No wind81%30.00 "Hg7 mi
4:53 AM68 °FPassing clouds.No wind84%29.99 "Hg6 mi
3:53 AM69 °FPassing clouds.No wind84%29.99 "Hg10 mi
2:53 AM70 °FPassing clouds.No wind81%29.99 "Hg10 mi
1:53 AM73 °FPartly cloudy.No wind79%29.98 "Hg10 mi
12:53 AM74 °FPassing clouds.No wind74%29.99 "Hg10 mi
11:53 PM
Sun, Jul 26
76 °FPassing clouds.No wind69%29.98 "Hg10 mi
Weather by CustomWeather, © 2015

See weather overviewHow to use our weather pages